Kuchera_Ratio
0.0 0.0 0.0 0.0 0.0 0.0 0.0 0.0 0.0 0.0 0.0 0.0 0.0 0.0 0.0 0.0 0.0 0.0 0.0 0.0 0.0 0.0 0.0 0.0 0.0 0.0 0.0 0.0 0.0 0.0 0.0 0.0 0.0 0.0 0.0 0.0 0.0 0.0 0.0 0.0 0.0 0.0 0.0 0.0 0.0 0.0 0.0 0.0 0.0 0.0 0.0 0.0
0.0 0.0 0.0 0.0 0.0 0.0 0.0 0.0 0.0 0.0 0.0 0.0 0.0 0.0 0.0 0.0 0.0 0.0 0.0 0.0 0.0 0.0 0.0 0.0 0.0 0.0 0.0 0.0 0.0 0.0 0.0 0.0 0.0 0.0 0.0 0.0 0.0 0.0 0.0 0.0 0.0 0.0 0.0 0.0 0.0 0.0 0.0 0.0 0.0 0.0 0.0 0.0
0.0 0.0 0.0 0.0 0.0 0.0 0.0 0.0 0.0 0.0 0.0 0.0 0.0 0.0 0.0 0.0 0.0 0.0 0.0 0.0 0.0 0.0 0.0 0.0 0.0 0.0 0.0 0.0 0.0 0.0 0.0 0.0 0.0 0.0 0.0 0.0 0.0 0.0 0.0 0.0 0.0 0.0 0.0 0.0 0.0 0.0 0.0 0.0 0.0 0.0 0.0 0.0
0.0 0.0 0.0 0.0 0.0 0.0 0.0 0.0 0.0 0.0 0.0 0.0 0.0 0.0 0.0 0.0 0.0 0.0 0.0 0.0 0.0 0.0 0.0 0.0 0.0 0.0 0.0 0.0 0.0 0.0 0.0 0.0 0.0 0.0 0.0 0.0 0.0 0.0 0.0 0.0 0.0 0.0 0.0 0.0 0.0 0.0 0.0 0.0 0.0 0.0 0.0 0.0
0.0 0.0 0.0 0.0 0.0 0.0 0.0 0.0 0.0 0.0 0.0 0.0 0.0 0.0 0.0 0.0 0.0 0.0 0.0 0.0 0.0 0.0 0.0 0.0 0.0 0.0 0.0 0.0 0.0 0.0 0.0 0.0 0.0 0.0 0.0 0.0 0.0 0.0 0.0 0.0 0.0 0.0 0.0 0.0 0.0 0.0 0.0 0.0 0.0 0.0 0.0 0.0
0.0 0.0 0.0 0.0 0.0 0.0 0.0 0.0 0.0 0.0 0.0 0.0 0.0 0.0 0.0 0.0 0.0 0.0 0.0 0.0 0.0 0.0 0.0 0.0 0.0 0.0 0.0 0.0 0.0 0.0 0.0 0.0 0.0 0.0 0.0 0.0 0.0 0.0 0.0 0.0 0.0 0.0 0.0 0.0 0.0 0.0 0.0 0.0 0.0 0.0 0.0 0.0
0.0 0.0 0.0 0.0 0.0 0.0 0.0 0.0 0.0 0.0 0.0 0.0 0.0 0.0 0.0 0.0 0.0 0.0 0.0 0.0 0.0 0.0 0.0 0.0 0.0 0.0 0.0 0.0 0.0 0.0 0.0 0.0 0.0 0.0 0.0 0.0 0.0 0.0 0.0 0.0 0.0 0.0 0.0 0.0 0.0 0.0 0.0 0.0 0.0 0.0 0.0 0.0
0.0 0.0 0.0 0.0 0.0 0.0 0.0 0.0 0.0 0.0 0.0 0.0 0.0 0.0 0.0 0.0 0.0 0.0 0.0 0.0 0.0 0.0 0.0 0.0 0.0 0.0 0.0 0.0 0.0 0.0 0.0 0.0 0.0 0.0 0.0 0.0 0.0 0.0 0.0 0.0 0.0 0.0 0.0 0.0 0.0 0.0 0.0 0.0 0.0 0.0 0.0 0.0
0.0 0.0 0.0 0.0 0.0 0.0 0.0 0.0 0.0 0.0 0.0 0.0 0.0 0.0 0.0 0.0 0.0 0.0 0.0 0.0 0.0 0.0 0.0 0.0 0.0 0.0 0.0 0.0 0.0 0.0 0.0 0.0 0.0 0.0 0.0 0.0 0.0 0.0 0.0 0.0 0.0 0.0 0.0 0.0 0.0 0.0 0.0 0.0 0.0 0.0 0.0 0.0
0.0 0.0 0.0 0.0 0.0 0.0 0.0 0.0 0.0 0.0 0.0 0.0 0.0 0.0 0.0 0.0 0.0 0.0 0.0 0.0 0.0 0.0 0.0 0.0 0.0 0.0 0.0 0.0 0.0 0.0 0.0 0.0 0.0 0.0 0.0 0.0 0.0 0.0 0.0 0.0 0.0 0.0 0.0 0.0 0.0 0.0 0.0 0.0 0.0 0.0 0.0 0.0
0.0 0.0 0.0 0.0 0.0 0.0 0.0 0.0 0.0 0.0 0.0 0.0 0.0 0.0 0.0 0.0 0.0 0.0 0.0 0.0 0.0 0.0 0.0 0.0 0.0 0.0 0.0 0.0 0.0 0.0 0.0 0.0 0.0 0.0 0.0 0.0 0.0 0.0 0.0 0.0 0.0 0.0 0.0 0.0 0.0 0.0 0.0 0.0 0.0 0.0 0.0 0.0
0.0 0.0 0.0 0.0 0.0 0.0 0.0 0.0 0.0 0.0 0.0 0.0 0.0 0.0 0.0 0.0 0.0 0.0 0.0 0.0 0.0 0.0 0.0 0.0 0.0 0.0 0.0 0.0 0.0 0.0 0.0 0.0 0.0 0.0 0.0 0.0 0.0 0.0 0.0 0.0 0.0 0.0 0.0 0.0 0.0 0.0 0.0 0.0 0.0 0.2 0.2 0.0
0.0 0.0 0.0 0.0 0.0 0.0 0.0 0.0 0.0 0.0 0.0 0.0 0.0 0.0 0.0 0.0 0.0 0.0 0.0 0.0 0.0 0.0 0.0 0.0 0.0 0.0 0.0 0.0 0.0 0.0 0.0 0.1 0.0 0.0 0.0 0.0 0.0 0.0 0.0 0.0 0.0 0.0 0.0 0.0 0.0 0.0 0.2 0.2 0.3 0.4 0.5 0.6
0.0 0.0 0.0 0.0 0.0 0.0 0.0 0.0 0.0 0.0 0.0 0.0 0.0 0.0 0.0 0.0 0.0 0.0 0.0 0.0 0.0 0.0 0.0 0.0 0.0 0.0 0.0 0.0 0.0 0.0 0.2 0.6 0.6 0.5 0.5 0.4 0.3 0.4 0.5 0.3 0.2 0.2 0.2 0.2 0.3 0.4 0.5 0.7 0.9 0.9 1.1 1.1
0.0 0.0 0.0 0.0 0.0 0.0 0.0 0.0 0.0 0.0 0.0 0.0 0.0 0.0 0.0 0.0 0.0 0.0 0.0 0.0 0.0 0.0 0.0 0.0 0.0 0.0 0.0 0.0 0.0 0.4 0.7 0.8 1.1 1.2 1.2 1.1 1.0 1.2 1.2 1.2 1.2 1.1 1.2 1.1 1.1 1.1 1.1 1.2 1.4 1.4 1.5 1.6
0.0 0.0 0.0 0.0 0.0 0.0 0.0 0.0 0.0 0.0 0.0 0.0 0.0 0.0 0.0 0.0 0.0 0.0 0.0 0.0 0.0 0.0 0.0 0.0 0.0 0.0 0.0 0.0 0.7 1.1 1.3 1.4 1.6 1.8 1.8 1.7 1.8 1.9 1.9 1.9 2.0 2.2 2.2 2.2 2.2 2.3 2.3 2.4 2.4 2.4 2.4 2.4
0.0 0.0 0.0 0.0 0.0 0.0 0.0 0.0 0.0 0.0 0.0 0.0 0.0 0.0 0.0 0.0 0.0 0.0 0.0 0.0 0.0 0.0 0.0 0.0 0.0 0.0 0.0 0.5 1.6 2.1 2.1 2.1 2.2 2.4 2.3 2.2 2.4 2.5 2.6 2.7 2.8 2.9 3.0 2.9 3.2 3.4 3.4 3.6 3.6 3.5 3.5 3.0
0.0 0.0 0.0 0.0 0.0 0.0 0.0 0.0 0.0 0.0 0.0 0.0 0.0 0.0 0.0 0.0 0.0 0.0 0.0 0.0 0.0 0.0 0.0 0.0 0.0 0.0 0.1 1.1 2.4 2.8 2.7 2.8 2.6 2.4 2.4 2.4 2.6 2.7 2.8 2.9 3.1 3.4 3.5 3.6 3.9 4.1 4.2 4.4 4.4 4.4 4.4 3.8
0.0 0.0 0.0 0.0 0.0 0.0 0.0 0.0 0.0 0.0 0.0 0.0 0.0 0.0 0.0 0.0 0.0 0.0 0.0 0.0 0.0 0.0 0.0 0.0 0.0 0.2 0.5 1.4 2.7 3.2 3.1 3.3 3.0 2.7 2.9 2.9 2.9 3.0 3.1 3.3 3.7 3.9 4.1 4.3 4.4 4.6 4.8 5.2 5.2 5.2 5.4 4.6
0.0 0.0 0.0 0.0 0.0 0.0 0.0 0.0 0.0 0.0 0.0 0.0 0.0 0.0 0.0 0.0 0.0 0.0 0.0 0.0 0.0 0.0 0.0 0.0 0.1 0.4 1.0 1.9 2.8 3.4 3.7 3.8 3.6 3.4 3.6 3.5 3.5 3.7 3.8 4.0 4.3 4.6 4.6 4.6 4.8 4.9 5.1 5.6 5.8 6.1 6.4 6.4
0.0 0.0 0.0 0.0 0.0 0.0 0.0 0.0 0.0 0.0 0.0 0.0 0.0 0.0 0.0 0.0 0.0 0.0 0.0 0.0 0.0 0.0 0.0 0.0 0.3 0.8 1.5 2.3 2.9 3.6 4.1 4.1 4.2 4.1 4.2 4.2 4.2 4.4 4.5 4.7 4.7 4.9 5.0 4.9 4.9 5.0 5.6 6.1 5.9 6.3 6.9 7.1
0.0 0.0 0.0 0.0 0.0 0.0 0.0 0.0 0.0 0.0 0.0 0.0 0.0 0.0 0.0 0.0 0.0 0.0 0.0 0.0 0.0 0.0 0.0 0.3 0.8 1.2 1.9 2.6 3.1 3.9 4.4 4.4 4.7 4.6 4.9 4.9 5.1 5.2 5.3 5.1 4.8 5.1 5.3 5.2 5.2 5.1 5.8 6.3 6.0 6.4 7.0 7.6
0.0 0.0 0.0 0.0 0.0 0.0 0.0 0.0 0.0 0.0 0.0 0.0 0.0 0.0 0.0 0.0 0.0 0.0 0.0 0.0 0.0 0.0 0.3 0.9 1.6 1.8 2.2 2.6 3.2 4.1 4.6 5.0 5.1 4.9 5.3 5.5 5.8 5.8 5.9 5.9 5.6 5.8 5.9 5.7 5.4 5.1 5.8 6.4 6.3 6.1 6.4 7.1
0.0 0.0 0.0 0.0 0.0 0.0 0.0 0.0 0.0 0.0 0.0 0.0 0.0 0.0 0.0 0.0 0.0 0.0 0.0 0.0 0.1 0.4 0.6 1.1 1.7 2.0 2.4 2.8 3.4 4.1 4.6 4.6 4.9 5.4 5.4 5.8 6.4 6.2 6.5 6.8 6.6 6.8 6.6 6.3 6.1 6.1 6.4 6.6 6.6 6.8 6.6 7.1
0.0 0.0 0.0 0.0 0.0 0.0 0.0 0.0 0.0 0.0 0.0 0.0 0.0 0.0 0.0 0.1 0.1 0.0 0.0 0.2 0.6 0.8 1.0 1.4 2.0 2.3 2.7 3.3 3.6 3.8 3.9 3.7 4.3 5.4 5.6 6.1 6.9 6.9 6.9 6.6 6.9 7.6 8.0 8.1 8.2 7.4 7.7 8.0 7.7 7.4 7.4 7.5
0.0 0.0 0.0 0.0 0.0 0.0 0.0 0.0 0.0 0.0 0.0 0.0 0.0 0.0 0.3 0.4 0.5 0.7 0.6 0.6 0.8 1.1 1.5 1.9 2.5 2.9 2.9 3.3 3.7 3.9 4.3 4.6 5.3 6.0 6.6 7.4 7.7 8.0 7.9 6.9 7.4 8.4 8.4 8.7 8.6 8.8 9.5 9.7 9.6 9.4 9.1 8.6
0.0 0.0 0.0 0.0 0.0 0.0 0.0 0.0 0.0 0.0 0.0 0.0 0.1 0.5 0.7 0.8 1.0 1.3 1.3 1.3 1.2 1.4 1.9 2.4 2.8 3.0 3.0 3.2 3.6 4.2 5.0 5.8 6.5 6.6 7.3 7.9 8.2 8.7 8.9 8.7 8.6 8.5 8.6 8.8 8.9 9.7 10.3 10.3 10.7 10.1 10.8 10.7
0.0 0.0 0.0 0.0 0.0 0.0 0.0 0.1 0.0 0.0 0.3 0.9 1.1 1.3 1.1 1.3 1.7 2.0 2.1 2.1 2.1 1.9 2.1 2.8 3.3 3.3 3.4 3.4 3.6 4.2 4.9 5.6 6.6 7.0 7.4 7.9 8.6 9.1 8.8 8.3 8.3 8.7 9.0 8.9 9.2 9.9 10.4 10.9 11.8 11.7 10.8 11.1
0.0 0.0 0.0 0.0 0.4 0.0 1.7 2.2 2.6 3.4 3.5 3.0 2.8 2.2 1.4 0.8 1.6 2.6 3.1 3.0 3.0 2.7 2.5 3.1 3.7 4.0 3.9 3.8 3.9 4.5 5.1 5.2 5.9 6.8 7.3 8.2 8.7 8.8 8.4 8.6 9.2 9.7 9.5 9.4 9.4 8.8 10.1 11.0 11.6 11.2 11.1 12.1
0.0 0.0 0.0 0.2 1.4 2.5 3.3 4.1 4.1 2.9 1.4 1.1 1.2 0.1 0.0 0.4 1.4 2.1 2.6 3.3 3.9 3.6 3.4 3.5 4.0 4.8 4.7 4.5 4.6 4.7 5.5 5.9 6.1 6.7 7.3 8.0 8.8 8.9 8.9 9.4 10.4 10.2 9.7 10.2 10.9 10.1 9.6 8.2 10.8 11.4 12.1 12.5
0.0 0.0 0.0 0.3 0.9 1.5 2.5 2.9 1.6 0.2 0.0 0.4 0.7 0.6 1.3 1.9 1.6 1.9 2.3 2.7 3.6 4.4 4.5 4.4 4.6 5.2 5.4 5.4 5.3 5.1 5.9 6.4 6.6 6.9 6.9 7.6 8.2 8.6 9.7 10.6 10.6 9.8 10.1 11.0 11.0 10.6 11.1 10.8 10.4 10.2 11.6 12.7